KINEIS-2D

Last updated on Mon Sep 21 2026 00:02:54 GMT+0000 (Coordinated Universal Time)

1 62930U 25028C 26263.10836160 .00000831 00000+0 12825-3 0 9993 2 62930 97.9195 313.6961 0001853 246.9794 113.1220 14.75918177 86711
UTC large
Height (km)
Speed (km/s)
/
Latitude / Longitude
Inclination (degrees)
Orbital Period (minutes)
Azimuth
Elevation
Range (km)
Doppler Factor

Next 0 passes for location: London (51.5072 / 0.1276)

No passes found over London.
KINEIS-2D